Location: Asheville, NC
(35.6000°N, 82.5500°W)
Time: 02:35:53
(UTC-05:00)

Vanguard 1 - Pass Details

Date: 17 February 2018
Orbit: 650 x 3833 km, 34.2° (Epoch: 18 February)

Event Time Altitude Azimuth Distance (km) Brightness Sun altitude
Rises 22:24:23 0° 268° (W) 2,999 - -50.4°
Reaches altitude 10° 22:27:45 10° 240° (WSW) 2,038 - -51.0°
Maximum altitude 22:30:00 14° 209° (SSW) 1,843 - -51.4°
Drops below altitude 10° 22:32:25 10° 178° (S) 2,189 - -51.8°
Sets 22:36:19 0° 152° (SSE) 3,418 - -52.5°
